Time,TemperatureF,DewpointF,PressureIn,WindDirection,WindDirectionDegrees,WindSpeedMPH,WindSpeedGustMPH,Humidity,HourlyPrecipIn,Conditions,Clouds,dailyrainin,SoftwareType,DateUTC
2013-10-10 00:04:00,47.1,46.6,30.16,SSW,202,0.0,-999.0,98,-99.99,,,0.00,Acu-Link.com,2013-10-10 04:04:00,
2013-10-10 00:19:00,45.9,45.4,30.16,West,270,0.0,-999.0,98,-99.99,,,0.00,Acu-Link.com,2013-10-10 04:19:00,
2013-10-10 00:35:00,46.0,45.5,30.16,SSW,202,0.0,-999.0,98,-99.99,,,0.00,Acu-Link.com,2013-10-10 04:35:00,
2013-10-10 00:50:00,45.5,45.0,30.16,ESE,112,2.2,-999.0,98,-99.99,,,0.00,Acu-Link.com,2013-10-10 04:50:00,
2013-10-10 01:05:00,45.5,45.0,30.16,SE,135,1.1,-999.0,98,-99.99,,,0.00,Acu-Link.com,2013-10-10 05:05:00,
2013-10-10 01:21:00,45.5,45.0,30.16,WNW,292,0.0,-999.0,98,-99.99,,,0.00,Acu-Link.com,2013-10-10 05:21:00,
2013-10-10 01:37:00,44.6,44.1,30.16,WSW,247,0.0,-999.0,98,-99.99,,,0.00,Acu-Link.com,2013-10-10 05:37:00,
2013-10-10 01:52:00,45.0,44.5,30.16,SSW,202,0.0,-999.0,98,-99.99,,,0.00,Acu-Link.com,2013-10-10 05:52:00,
2013-10-10 02:07:00,44.8,44.3,30.16,SE,135,0.0,-999.0,98,-99.99,,,0.00,Acu-Link.com,2013-10-10 06:07:00,
2013-10-10 02:22:00,44.8,44.3,30.15,ESE,112,0.0,-999.0,98,-99.99,,,0.00,Acu-Link.com,2013-10-10 06:22:00,
2013-10-10 02:37:00,44.6,44.1,30.16,SE,135,1.1,-999.0,98,-99.99,,,0.00,Acu-Link.com,2013-10-10 06:37:00,
2013-10-10 02:53:00,44.4,43.9,30.15,SSW,202,0.0,-999.0,98,-99.99,,,0.00,Acu-Link.com,2013-10-10 06:53:00,
2013-10-10 03:08:00,44.6,44.1,30.15,West,270,0.0,-999.0,98,-99.99,,,0.00,Acu-Link.com,2013-10-10 07:08:00,
2013-10-10 03:25:00,44.4,43.9,30.15,SSE,157,0.0,-999.0,98,-99.99,,,0.00,Acu-Link.com,2013-10-10 07:25:00,
2013-10-10 03:40:00,44.1,43.6,30.14,SE,135,0.0,-999.0,98,-99.99,,,0.00,Acu-Link.com,2013-10-10 07:40:00,
2013-10-10 03:56:00,43.9,43.4,30.13,SE,135,0.0,-999.0,98,-99.99,,,0.00,Acu-Link.com,2013-10-10 07:56:00,
2013-10-10 04:11:00,43.5,43.0,30.13,ESE,112,0.0,-999.0,98,-99.99,,,0.00,Acu-Link.com,2013-10-10 08:11:00,
2013-10-10 04:26:00,43.3,42.8,30.13,SSW,202,0.0,-999.0,98,-99.99,,,0.00,Acu-Link.com,2013-10-10 08:26:00,
2013-10-10 04:41:00,43.3,42.8,30.13,SSE,157,0.0,-999.0,98,-99.99,,,0.00,Acu-Link.com,2013-10-10 08:41:00,
2013-10-10 04:57:00,43.7,43.2,30.13,SE,135,0.0,-999.0,98,-99.99,,,0.00,Acu-Link.com,2013-10-10 08:57:00,
2013-10-10 05:14:00,43.0,42.5,30.13,WSW,247,0.0,-999.0,98,-99.99,,,0.00,Acu-Link.com,2013-10-10 09:14:00,
2013-10-10 05:30:00,42.8,42.3,30.14,NE,45,0.0,-999.0,98,-99.99,,,0.00,Acu-Link.com,2013-10-10 09:30:00,
2013-10-10 05:45:00,42.6,42.1,30.13,ESE,112,2.2,-999.0,98,-99.99,,,0.00,Acu-Link.com,2013-10-10 09:45:00,
2013-10-10 06:00:00,42.8,42.3,30.13,SSE,157,1.1,-999.0,98,-99.99,,,0.00,Acu-Link.com,2013-10-10 10:00:00,
2013-10-10 06:16:00,42.8,42.3,30.13,ESE,112,0.0,-999.0,98,-99.99,,,0.00,Acu-Link.com,2013-10-10 10:16:00,
2013-10-10 06:31:00,41.7,41.2,30.14,South,180,0.0,-999.0,98,-99.99,,,0.00,Acu-Link.com,2013-10-10 10:31:00,
2013-10-10 06:46:00,41.2,40.7,30.14,WNW,292,0.0,-999.0,98,-99.99,,,0.00,Acu-Link.com,2013-10-10 10:46:00,
2013-10-10 07:02:00,41.4,40.9,30.14,SSW,202,0.0,-999.0,98,-99.99,,,0.00,Acu-Link.com,2013-10-10 11:02:00,
2013-10-10 07:17:00,40.8,40.3,30.14,West,270,0.0,-999.0,98,-99.99,,,0.00,Acu-Link.com,2013-10-10 11:17:00,
2013-10-10 07:33:00,41.0,40.5,30.14,South,180,0.0,-999.0,98,-99.99,,,0.00,Acu-Link.com,2013-10-10 11:33:00,
2013-10-10 07:48:00,41.0,40.5,30.13,ESE,112,0.0,-999.0,98,-99.99,,,0.00,Acu-Link.com,2013-10-10 11:48:00,
2013-10-10 08:04:00,41.2,40.7,30.13,South,180,0.0,-999.0,98,-99.99,,,0.00,Acu-Link.com,2013-10-10 12:04:00,
2013-10-10 08:19:00,41.5,41.0,30.13,ESE,112,1.7,-999.0,98,-99.99,,,0.00,Acu-Link.com,2013-10-10 12:19:00,
2013-10-10 08:35:00,42.1,41.6,30.13,SE,135,3.2,-999.0,98,-99.99,,,0.00,Acu-Link.com,2013-10-10 12:35:00,
2013-10-10 08:50:00,43.3,42.8,30.13,South,180,0.0,-999.0,98,-99.99,,,0.00,Acu-Link.com,2013-10-10 12:50:00,
2013-10-10 09:06:00,45.1,44.6,30.13,NNW,337,0.0,-999.0,98,-99.99,,,0.00,Acu-Link.com,2013-10-10 13:06:00,
2013-10-10 09:21:00,46.8,46.3,30.14,WNW,292,0.0,-999.0,98,-99.99,,,0.00,Acu-Link.com,2013-10-10 13:21:00,
2013-10-10 09:36:00,49.8,49.3,30.14,SW,225,0.0,-999.0,98,-99.99,,,0.00,Acu-Link.com,2013-10-10 13:36:00,
2013-10-10 09:51:00,51.3,50.8,30.13,South,180,1.7,-999.0,98,-99.99,,,0.00,Acu-Link.com,2013-10-10 13:51:00,
2013-10-10 10:07:00,52.9,52.4,30.13,ESE,112,3.2,-999.0,98,-99.99,,,0.00,Acu-Link.com,2013-10-10 14:07:00,
2013-10-10 10:22:00,53.6,53.0,30.12,ESE,112,3.2,-999.0,98,-99.99,,,0.00,Acu-Link.com,2013-10-10 14:22:00,
2013-10-10 10:37:00,55.2,54.6,30.12,South,180,0.0,-999.0,98,-99.99,,,0.00,Acu-Link.com,2013-10-10 14:37:00,
2013-10-10 10:52:00,57.0,44.9,30.12,WNW,292,1.1,-999.0,64,-99.99,,,0.00,Acu-Link.com,2013-10-10 14:52:00,
2013-10-10 11:08:00,57.7,40.7,30.11,SSE,157,0.0,-999.0,53,-99.99,,,0.00,Acu-Link.com,2013-10-10 15:08:00,
2013-10-10 11:23:00,57.4,38.9,30.11,SSW,202,0.0,-999.0,50,-99.99,,,0.00,Acu-Link.com,2013-10-10 15:23:00,
2013-10-10 11:38:00,59.0,31.4,30.11,ESE,112,1.1,-999.0,35,-99.99,,,0.00,Acu-Link.com,2013-10-10 15:38:00,
2013-10-10 11:53:00,59.9,26.7,30.11,South,180,1.7,-999.0,28,-99.99,,,0.00,Acu-Link.com,2013-10-10 15:53:00,
2013-10-10 12:09:00,60.8,15.7,30.10,South,180,1.1,-999.0,17,-99.99,,,0.00,Acu-Link.com,2013-10-10 16:09:00,
2013-10-10 12:24:00,61.3,2.0,30.11,SE,135,1.7,-999.0,9,-99.99,,,0.00,Acu-Link.com,2013-10-10 16:24:00,
2013-10-10 12:40:00,61.5,-6.3,30.10,ESE,112,3.2,-999.0,6,-99.99,,,0.00,Acu-Link.com,2013-10-10 16:40:00,
2013-10-10 12:55:00,62.8,-5.4,30.09,SE,135,0.0,-999.0,6,-99.99,,,0.00,Acu-Link.com,2013-10-10 16:55:00,
2013-10-10 13:11:00,63.9,-38.5,30.09,WSW,247,0.0,-999.0,0,-99.99,,,0.00,Acu-Link.com,2013-10-10 17:11:00,
2013-10-10 13:27:00,63.5,-38.7,30.09,NNW,337,0.0,-999.0,0,-99.99,,,0.00,Acu-Link.com,2013-10-10 17:27:00,
2013-10-10 13:42:00,62.8,-39.2,30.08,South,180,0.0,-999.0,0,-99.99,,,0.00,Acu-Link.com,2013-10-10 17:42:00,
2013-10-10 13:57:00,61.7,-39.8,30.08,ESE,112,2.7,-999.0,0,-99.99,,,0.00,Acu-Link.com,2013-10-10 17:57:00,
2013-10-10 14:13:00,62.4,-39.4,30.07,WSW,247,0.0,-999.0,0,-99.99,,,0.00,Acu-Link.com,2013-10-10 18:13:00,
2013-10-10 14:29:00,62.4,-39.4,30.07,SSE,157,0.0,-999.0,0,-99.99,,,0.00,Acu-Link.com,2013-10-10 18:29:00,
2013-10-10 14:44:00,62.2,-39.5,30.07,ESE,112,0.0,-999.0,0,-99.99,,,0.00,Acu-Link.com,2013-10-10 18:44:00,
2013-10-10 15:00:00,62.8,-39.2,30.06,SSW,202,0.0,-999.0,0,-99.99,,,0.00,Acu-Link.com,2013-10-10 19:00:00,
2013-10-10 15:15:00,62.6,-39.3,30.06,SW,225,0.0,-999.0,0,-99.99,,,0.00,Acu-Link.com,2013-10-10 19:15:00,
2013-10-10 15:30:00,60.8,25.7,30.06,ESE,112,0.0,-999.0,26,-99.99,,,0.00,Acu-Link.com,2013-10-10 19:30:00,
2013-10-10 15:46:00,60.6,20.5,30.06,ESE,112,1.1,-999.0,21,-99.99,,,0.00,Acu-Link.com,2013-10-10 19:46:00,
2013-10-10 16:02:00,59.9,35.5,30.06,ESE,112,1.7,-999.0,40,-99.99,,,0.00,Acu-Link.com,2013-10-10 20:02:00,
2013-10-10 16:17:00,59.0,48.1,30.05,NNE,22,0.0,-999.0,67,-99.99,,,0.00,Acu-Link.com,2013-10-10 20:17:00,
2013-10-10 16:33:00,58.3,54.8,30.06,SSE,157,0.0,-999.0,88,-99.99,,,0.00,Acu-Link.com,2013-10-10 20:33:00,
2013-10-10 16:48:00,56.8,51.4,30.06,ESE,112,1.7,-999.0,82,-99.99,,,0.00,Acu-Link.com,2013-10-10 20:48:00,
2013-10-10 17:03:00,55.4,54.8,30.06,ESE,112,3.7,-999.0,98,-99.99,,,0.00,Acu-Link.com,2013-10-10 21:03:00,
2013-10-10 17:19:00,54.5,53.9,30.07,East,90,0.0,-999.0,98,-99.99,,,0.00,Acu-Link.com,2013-10-10 21:19:00,
2013-10-10 17:34:00,54.1,53.5,30.06,SE,135,0.0,-999.0,98,-99.99,,,0.01,Acu-Link.com,2013-10-10 21:34:00,
2013-10-10 17:50:00,53.2,52.6,30.06,SE,135,0.0,-999.0,98,-99.99,,,0.01,Acu-Link.com,2013-10-10 21:50:00,
2013-10-10 18:05:00,52.5,52.0,30.06,SSE,157,0.0,-999.0,98,-99.99,,,0.02,Acu-Link.com,2013-10-10 22:05:00,
2013-10-10 18:21:00,52.2,51.7,30.06,ESE,112,0.0,-999.0,98,-99.99,,,0.02,Acu-Link.com,2013-10-10 22:21:00,
2013-10-10 18:36:00,51.8,51.3,30.06,ESE,112,0.0,-999.0,98,-99.99,,,0.02,Acu-Link.com,2013-10-10 22:36:00,
2013-10-10 18:51:00,51.6,51.1,30.06,ESE,112,0.0,-999.0,98,-99.99,,,0.02,Acu-Link.com,2013-10-10 22:51:00,
2013-10-10 19:07:00,51.4,50.9,30.05,SSE,157,0.0,-999.0,98,-99.99,,,0.02,Acu-Link.com,2013-10-10 23:07:00,
2013-10-10 19:23:00,51.1,50.6,30.05,SSE,157,1.7,-999.0,98,-99.99,,,0.02,Acu-Link.com,2013-10-10 23:23:00,
2013-10-10 19:38:00,50.9,50.4,30.04,West,270,1.1,-999.0,98,-99.99,,,0.02,Acu-Link.com,2013-10-10 23:38:00,
2013-10-10 19:53:00,50.9,50.4,30.05,East,90,2.2,-999.0,98,-99.99,,,0.02,Acu-Link.com,2013-10-10 23:53:00,
2013-10-10 20:09:00,50.5,50.0,30.05,NE,45,0.0,-999.0,98,-99.99,,,0.02,Acu-Link.com,2013-10-11 00:09:00,
2013-10-10 20:25:00,50.5,50.0,30.05,ESE,112,0.0,-999.0,98,-99.99,,,0.02,Acu-Link.com,2013-10-11 00:25:00,
2013-10-10 20:40:00,50.5,50.0,30.05,ESE,112,0.0,-999.0,98,-99.99,,,0.02,Acu-Link.com,2013-10-11 00:40:00,
2013-10-10 20:56:00,50.5,50.0,30.03,ESE,112,1.7,-999.0,98,-99.99,,,0.02,Acu-Link.com,2013-10-11 00:56:00,
2013-10-10 21:12:00,50.4,49.9,30.04,SSE,157,1.7,-999.0,98,-99.99,,,0.02,Acu-Link.com,2013-10-11 01:12:00,
2013-10-10 21:27:00,50.5,50.0,30.04,ESE,112,0.0,-999.0,98,-99.99,,,0.03,Acu-Link.com,2013-10-11 01:27:00,
2013-10-10 21:42:00,50.7,50.2,30.03,ESE,112,0.0,-999.0,98,-99.99,,,0.03,Acu-Link.com,2013-10-11 01:42:00,
2013-10-10 21:57:00,50.5,50.0,30.03,SE,135,0.0,-999.0,98,-99.99,,,0.03,Acu-Link.com,2013-10-11 01:57:00,
2013-10-10 22:13:00,50.2,49.7,30.03,SSE,157,0.0,-999.0,98,-99.99,,,0.03,Acu-Link.com,2013-10-11 02:13:00,
2013-10-10 22:28:00,50.2,49.7,30.03,SSE,157,0.0,-999.0,98,-99.99,,,0.03,Acu-Link.com,2013-10-11 02:28:00,
2013-10-10 22:44:00,50.2,49.7,30.03,South,180,0.0,-999.0,98,-99.99,,,0.03,Acu-Link.com,2013-10-11 02:44:00,
2013-10-10 22:59:00,50.4,49.9,30.03,SSE,157,1.1,-999.0,98,-99.99,,,0.03,Acu-Link.com,2013-10-11 02:59:00,
2013-10-10 23:15:00,50.5,50.0,30.02,ENE,67,0.0,-999.0,98,-99.99,,,0.03,Acu-Link.com,2013-10-11 03:15:00,
2013-10-10 23:31:00,50.4,49.9,30.01,NNE,22,0.0,-999.0,98,-99.99,,,0.03,Acu-Link.com,2013-10-11 03:31:00,
2013-10-10 23:46:00,50.7,50.2,30.01,South,180,0.0,-999.0,98,-99.99,,,0.03,Acu-Link.com,2013-10-11 03:46:00,